�v������,�v���f�[�^(m3),�t���O,�K�X�S�́mMJ�n,�t���O,�K�X�����mMJ�n,�t���O,�K�X�����mMJ�n,�t���O
2004/2/1 0:00,0,0,0,0,0,0,0,0
2004/2/1 0:15,0,0,0,0,0,0,0,0
2004/2/1 0:30,0,0,0,0,0,0,0,0
2004/2/1 0:45,0,0,0,0,0,0,0,0
2004/2/1 1:00,0,0,0,0,0,0,0,0
2004/2/1 1:15,0,0,0,0,0,0,0,0
2004/2/1 1:30,0,0,0,0,0,0,0,0
2004/2/1 1:45,0,0,0,0,0,0,0,0
2004/2/1 2:00,0,0,0,0,0,0,0,0
2004/2/1 2:15,0,0,0,0,0,0,0,0
2004/2/1 2:30,0,0,0,0,0,0,0,0
2004/2/1 2:45,0,0,0,0,0,0,0,0
2004/2/1 3:00,0,0,0,0,0,0,0,0
2004/2/1 3:15,0,0,0,0,0,0,0,0
2004/2/1 3:30,0,0,0,0,0,0,0,0
2004/2/1 3:45,0,0,0,0,0,0,0,0
2004/2/1 4:00,0,0,0,0,0,0,0,0
2004/2/1 4:15,0,0,0,0,0,0,0,0
2004/2/1 4:30,0,0,0,0,0,0,0,0
2004/2/1 4:45,0,0,0,0,0,0,0,0
2004/2/1 5:00,0,0,0,0,0,0,0,0
2004/2/1 5:15,0,0,0,0,0,0,0,0
2004/2/1 5:30,0,0,0,0,0,0,0,0
2004/2/1 5:45,0,0,0,0,0,0,0,0
2004/2/1 6:00,0,0,0,0,0,0,0,0
2004/2/1 6:15,0,0,0,0,0,0,0,0
2004/2/1 6:30,0,0,0,0,0,0,0,0
2004/2/1 6:45,0,0,0,0,0,0,0,0
2004/2/1 7:00,0,0,0,0,0,0,0,0
2004/2/1 7:15,0,0,0,0,0,0,0,0
2004/2/1 7:30,0,0,0,0,0,0,0,0
2004/2/1 7:45,0,0,0,0,0,0,0,0
2004/2/1 8:00,0,0,0,0,0,0,0,0
2004/2/1 8:15,0,0,0,0,0,0,0,0
2004/2/1 8:30,0.016666667,0,8.9999,0,0,0,8.9999,0
2004/2/1 8:45,0.033333333,0,17.9998,0,8.9999,0,8.9999,0
2004/2/1 9:00,0.086666667,0,46.79948,0,39.59956,0,7.19992,0
2004/2/1 9:15,0.036666667,0,19.79978,0,0,0,19.79978,0
2004/2/1 9:30,0.01,0,5.39994,0,0,0,5.39994,0
2004/2/1 9:45,0.006666667,0,3.59996,0,0,0,3.59996,0
2004/2/1 10:00,0,0,0,0,0,0,0,0
2004/2/1 10:15,0,0,0,0,0,0,0,0
2004/2/1 10:30,0,0,0,0,0,0,0,0
2004/2/1 10:45,0,0,0,0,0,0,0,0
2004/2/1 11:00,0,0,0,0,0,0,0,0
2004/2/1 11:15,0,0,0,0,0,0,0,0
2004/2/1 11:30,0,0,0,0,0,0,0,0
2004/2/1 11:45,0,0,0,0,0,0,0,0
2004/2/1 12:00,0,0,0,0,0,0,0,0
2004/2/1 12:15,0,0,0,0,0,0,0,0
2004/2/1 12:30,0,0,0,0,0,0,0,0
2004/2/1 12:45,0,0,0,0,0,0,0,0
2004/2/1 13:00,0,0,0,0,0,0,0,0
2004/2/1 13:15,0,0,0,0,0,0,0,0
2004/2/1 13:30,0,0,0,0,0,0,0,0
2004/2/1 13:45,0.016666667,0,8.9999,0,0,0,8.9999,0
2004/2/1 14:00,0.006666667,0,3.59996,0,0,0,3.59996,0
2004/2/1 14:15,0,0,0,0,0,0,0,0
2004/2/1 14:30,0,0,0,0,0,0,0,0
2004/2/1 14:45,0,0,0,0,0,0,0,0
2004/2/1 15:00,0,0,0,0,0,0,0,0
2004/2/1 15:15,0,0,0,0,0,0,0,0
2004/2/1 15:30,0.02,0,10.79988,0,0,0,10.79988,0
2004/2/1 15:45,0.053333333,0,28.79968,0,19.79978,0,8.9999,0
2004/2/1 16:00,0.026666667,0,14.39984,0,0,0,14.39984,0
2004/2/1 16:15,0.026666667,0,14.39984,0,0,0,14.39984,0
2004/2/1 16:30,0.04,0,21.59976,0,12.59986,0,8.9999,0
2004/2/1 16:45,0.023333333,0,12.59986,0,0,0,12.59986,0
2004/2/1 17:00,0.01,0,5.39994,0,0,0,5.39994,0
2004/2/1 17:15,0.013333333,0,7.19992,0,0,0,7.19992,0
2004/2/1 17:30,0.006666667,0,3.59996,0,0,0,3.59996,0
2004/2/1 17:45,0.156666667,0,84.59906,0,84.59906,0,0,0
2004/2/1 18:00,0.073333333,0,39.59956,0,35.9996,0,3.59996,0
2004/2/1 18:15,0.136666667,0,73.79918,0,73.79918,0,0,0
2004/2/1 18:30,0.173333333,0,93.59896,0,93.59896,0,0,0
2004/2/1 18:45,0.15,0,80.9991,0,80.9991,0,0,0
2004/2/1 19:00,0.013333333,0,7.19992,0,0,0,7.19992,0
2004/2/1 19:15,0.013333333,0,7.19992,0,0,0,7.19992,0
2004/2/1 19:30,0.01,0,5.39994,0,0,0,5.39994,0
2004/2/1 19:45,0.006666667,0,3.59996,0,0,0,3.59996,0
2004/2/1 20:00,0.006666667,0,3.59996,0,0,0,3.59996,0
2004/2/1 20:15,0.073333333,0,39.59956,0,39.59956,0,0,0
2004/2/1 20:30,0.06,0,32.39964,0,32.39964,0,0,0
2004/2/1 20:45,0.036666667,0,19.79978,0,16.19982,0,3.59996,0
2004/2/1 21:00,0.006666667,0,3.59996,0,0,0,3.59996,0
2004/2/1 21:15,0.006666667,0,3.59996,0,0,0,3.59996,0
2004/2/1 21:30,0.003333333,0,1.79998,0,0,0,1.79998,0
2004/2/1 21:45,0.006666667,0,3.59996,0,0,0,3.59996,0
2004/2/1 22:00,0.006666667,0,3.59996,0,0,0,3.59996,0
2004/2/1 22:15,0.006666667,0,3.59996,0,0,0,3.59996,0
2004/2/1 22:30,0.003333333,0,1.79998,0,0,0,1.79998,0
2004/2/1 22:45,0.006666667,0,3.59996,0,0,0,3.59996,0
2004/2/1 23:00,0.006666667,0,3.59996,0,0,0,3.59996,0
2004/2/1 23:15,0.006666667,0,3.59996,0,0,0,3.59996,0
2004/2/1 23:30,0.003333333,0,1.79998,0,0,0,1.79998,0
2004/2/1 23:45,0.006666667,0,3.59996,0,0,0,3.59996,0
2004/2/2 0:00,0.003333333,0,1.79998,0,0,0,1.79998,0
2004/2/2 0:15,0,0,0,0,0,0,0,0
2004/2/2 0:30,0,0,0,0,0,0,0,0
2004/2/2 0:45,0,0,0,0,0,0,0,0
2004/2/2 1:00,0,0,0,0,0,0,0,0
2004/2/2 1:15,0,0,0,0,0,0,0,0
2004/2/2 1:30,0,0,0,0,0,0,0,0
2004/2/2 1:45,0,0,0,0,0,0,0,0
2004/2/2 2:00,0,0,0,0,0,0,0,0
2004/2/2 2:15,0,0,0,0,0,0,0,0
2004/2/2 2:30,0,0,0,0,0,0,0,0
2004/2/2 2:45,0,0,0,0,0,0,0,0
2004/2/2 3:00,0,0,0,0,0,0,0,0
2004/2/2 3:15,0,0,0,0,0,0,0,0
2004/2/2 3:30,0,0,0,0,0,0,0,0
2004/2/2 3:45,0,0,0,0,0,0,0,0
2004/2/2 4:00,0,0,0,0,0,0,0,0
2004/2/2 4:15,0,0,0,0,0,0,0,0
2004/2/2 4:30,0,0,0,0,0,0,0,0
2004/2/2 4:45,0,0,0,0,0,0,0,0
2004/2/2 5:00,0,0,0,0,0,0,0,0
2004/2/2 5:15,0,0,0,0,0,0,0,0
2004/2/2 5:30,0,0,0,0,0,0,0,0
2004/2/2 5:45,0.013333333,0,7.19992,0,0,0,7.19992,0
2004/2/2 6:00,0.023333333,0,12.59986,0,0,0,12.59986,0
2004/2/2 6:15,0.043333333,0,23.39974,0,10.79988,0,12.59986,0
2004/2/2 6:30,0.02,0,10.79988,0,0,0,10.79988,0
2004/2/2 6:45,0.006666667,0,3.59996,0,0,0,3.59996,0
2004/2/2 7:00,0.006666667,0,3.59996,0,0,0,3.59996,0
2004/2/2 7:15,0.023333333,0,12.59986,0,0,0,12.59986,0
2004/2/2 7:30,0.023333333,0,12.59986,0,0,0,12.59986,0
2004/2/2 7:45,0.013333333,0,7.19992,0,0,0,7.19992,0
2004/2/2 8:00,0.006666667,0,3.59996,0,0,0,3.59996,0
2004/2/2 8:15,0.006666667,0,3.59996,0,0,0,3.59996,0
2004/2/2 8:30,0.006666667,0,3.59996,0,0,0,3.59996,0
2004/2/2 8:45,0.003333333,0,1.79998,0,0,0,1.79998,0
2004/2/2 9:00,0.006666667,0,3.59996,0,0,0,3.59996,0
2004/2/2 9:15,0.006666667,0,3.59996,0,0,0,3.59996,0
2004/2/2 9:30,0.003333333,0,1.79998,0,0,0,1.79998,0
2004/2/2 9:45,0,0,0,0,0,0,0,0
2004/2/2 10:00,0.02,0,10.79988,0,0,0,10.79988,0
2004/2/2 10:15,0.026666667,0,14.39984,0,0,0,14.39984,0
2004/2/2 10:30,0.02,0,10.79988,0,0,0,10.79988,0
2004/2/2 10:45,0.023333333,0,12.59986,0,0,0,12.59986,0
2004/2/2 11:00,0.023333333,0,12.59986,0,0,0,12.59986,0
2004/2/2 11:15,0.02,0,10.79988,0,0,0,10.79988,0
2004/2/2 11:30,0,0,0,0,0,0,0,0
2004/2/2 11:45,0,0,0,0,0,0,0,0
2004/2/2 12:00,0,0,0,0,0,0,0,0
2004/2/2 12:15,0,0,0,0,0,0,0,0
2004/2/2 12:30,0,0,0,0,0,0,0,0
2004/2/2 12:45,0,0,0,0,0,0,0,0
2004/2/2 13:00,0,0,0,0,0,0,0,0
2004/2/2 13:15,0,0,0,0,0,0,0,0
2004/2/2 13:30,0,0,0,0,0,0,0,0
2004/2/2 13:45,0,0,0,0,0,0,0,0
2004/2/2 14:00,0,0,0,0,0,0,0,0
2004/2/2 14:15,0,0,0,0,0,0,0,0
2004/2/2 14:30,0.016666667,0,8.9999,0,0,0,8.9999,0
2004/2/2 14:45,0.026666667,0,14.39984,0,0,0,14.39984,0
2004/2/2 15:00,0.02,0,10.79988,0,0,0,10.79988,0
2004/2/2 15:15,0.006666667,0,3.59996,0,0,0,3.59996,0
2004/2/2 15:30,0.003333333,0,1.79998,0,0,0,1.79998,0
2004/2/2 15:45,0.006666667,0,3.59996,0,0,0,3.59996,0
2004/2/2 16:00,0.01,0,5.39994,0,0,0,5.39994,0
2004/2/2 16:15,0.006666667,0,3.59996,0,0,0,3.59996,0
2004/2/2 16:30,0.003333333,0,1.79998,0,0,0,1.79998,0
2004/2/2 16:45,0.006666667,0,3.59996,0,0,0,3.59996,0
2004/2/2 17:00,0.006666667,0,3.59996,0,0,0,3.59996,0
2004/2/2 17:15,0.01,0,5.39994,0,0,0,5.39994,0
2004/2/2 17:30,0.003333333,0,1.79998,0,0,0,1.79998,0
2004/2/2 17:45,0.006666667,0,3.59996,0,0,0,3.59996,0
2004/2/2 18:00,0.006666667,0,3.59996,0,0,0,3.59996,0
2004/2/2 18:15,0.006666667,0,3.59996,0,0,0,3.59996,0
2004/2/2 18:30,0.15,0,80.9991,0,80.9991,0,0,0
2004/2/2 18:45,0.133333333,0,71.9992,0,68.39924,0,3.59996,0
2004/2/2 19:00,0.013333333,0,7.19992,0,0,0,7.19992,0
2004/2/2 19:15,0.033333333,0,17.9998,0,8.9999,0,8.9999,0
2004/2/2 19:30,0.013333333,0,7.19992,0,0,0,7.19992,0
2004/2/2 19:45,0.076666667,0,41.39954,0,37.79958,0,3.59996,0
2004/2/2 20:00,0.133333333,0,71.9992,0,70.19922,0,1.79998,0
2004/2/2 20:15,0.01,0,5.39994,0,0,0,5.39994,0
2004/2/2 20:30,0.006666667,0,3.59996,0,0,0,3.59996,0
2004/2/2 20:45,0.006666667,0,3.59996,0,0,0,3.59996,0
2004/2/2 21:00,0.12,0,64.79928,0,62.9993,0,1.79998,0
2004/2/2 21:15,0.133333333,0,71.9992,0,71.9992,0,0,0
2004/2/2 21:30,0.01,0,5.39994,0,0,0,5.39994,0
2004/2/2 21:45,0.006666667,0,3.59996,0,0,0,3.59996,0
2004/2/2 22:00,0.01,0,5.39994,0,0,0,5.39994,0
2004/2/2 22:15,0.006666667,0,3.59996,0,0,0,3.59996,0
2004/2/2 22:30,0.003333333,0,1.79998,0,0,0,1.79998,0
2004/2/2 22:45,0.01,0,5.39994,0,0,0,5.39994,0
2004/2/2 23:00,0.013333333,0,7.19992,0,0,0,7.19992,0
2004/2/2 23:15,0.006666667,0,3.59996,0,0,0,3.59996,0
2004/2/2 23:30,0.006666667,0,3.59996,0,0,0,3.59996,0
2004/2/2 23:45,0.006666667,0,3.59996,0,0,0,3.59996,0
2004/2/3 0:00,0.003333333,0,1.79998,0,0,0,1.79998,0
2004/2/3 0:15,0.006666667,0,3.59996,0,0,0,3.59996,0
2004/2/3 0:30,0.006666667,0,3.59996,0,0,0,3.59996,0
2004/2/3 0:45,0.003333333,0,1.79998,0,0,0,1.79998,0
2004/2/3 1:00,0.003333333,0,1.79998,0,0,0,1.79998,0
2004/2/3 1:15,0,0,0,0,0,0,0,0
2004/2/3 1:30,0,0,0,0,0,0,0,0
2004/2/3 1:45,0,0,0,0,0,0,0,0
2004/2/3 2:00,0,0,0,0,0,0,0,0
2004/2/3 2:15,0,0,0,0,0,0,0,0
2004/2/3 2:30,0,0,0,0,0,0,0,0
2004/2/3 2:45,0,0,0,0,0,0,0,0
2004/2/3 3:00,0,0,0,0,0,0,0,0
2004/2/3 3:15,0,0,0,0,0,0,0,0
2004/2/3 3:30,0,0,0,0,0,0,0,0
2004/2/3 3:45,0,0,0,0,0,0,0,0
2004/2/3 4:00,0,0,0,0,0,0,0,0
2004/2/3 4:15,0,0,0,0,0,0,0,0
2004/2/3 4:30,0,0,0,0,0,0,0,0
2004/2/3 4:45,0,0,0,0,0,0,0,0
2004/2/3 5:00,0,0,0,0,0,0,0,0
2004/2/3 5:15,0,0,0,0,0,0,0,0
2004/2/3 5:30,0.003333333,0,1.79998,0,0,0,1.79998,0
2004/2/3 5:45,0.053333333,0,28.79968,0,17.9998,0,10.79988,0
2004/2/3 6:00,0.046666667,0,25.19972,0,17.9998,0,7.19992,0
2004/2/3 6:15,0.04,0,21.59976,0,10.79988,0,10.79988,0
2004/2/3 6:30,0.013333333,0,7.19992,0,0,0,7.19992,0
2004/2/3 6:45,0.006666667,0,3.59996,0,0,0,3.59996,0
2004/2/3 7:00,0,0,0,0,0,0,0,0
2004/2/3 7:15,0.02,0,10.79988,0,0,0,10.79988,0
2004/2/3 7:30,0.02,0,10.79988,0,0,0,10.79988,0
2004/2/3 7:45,0.023333333,0,12.59986,0,0,0,12.59986,0
2004/2/3 8:00,0.01,0,5.39994,0,0,0,5.39994,0
2004/2/3 8:15,0.003333333,0,1.79998,0,0,0,1.79998,0
2004/2/3 8:30,0.006666667,0,3.59996,0,0,0,3.59996,0
2004/2/3 8:45,0.006666667,0,3.59996,0,0,0,3.59996,0
2004/2/3 9:00,0.006666667,0,3.59996,0,0,0,3.59996,0
2004/2/3 9:15,0.003333333,0,1.79998,0,0,0,1.79998,0
2004/2/3 9:30,0.01,0,5.39994,0,0,0,5.39994,0
2004/2/3 9:45,0.006666667,0,3.59996,0,0,0,3.59996,0
2004/2/3 10:00,0.003333333,0,1.79998,0,0,0,1.79998,0
2004/2/3 10:15,0,0,0,0,0,0,0,0
2004/2/3 10:30,0,0,0,0,0,0,0,0
2004/2/3 10:45,0,0,0,0,0,0,0,0
2004/2/3 11:00,0,0,0,0,0,0,0,0
2004/2/3 11:15,0,0,0,0,0,0,0,0
2004/2/3 11:30,0,0,0,0,0,0,0,0
2004/2/3 11:45,0,0,0,0,0,0,0,0
2004/2/3 12:00,0,0,0,0,0,0,0,0
2004/2/3 12:15,0,0,0,0,0,0,0,0
2004/2/3 12:30,0,0,0,0,0,0,0,0
2004/2/3 12:45,0.013333333,0,7.19992,0,0,0,7.19992,0
2004/2/3 13:00,0.043333333,0,23.39974,0,14.39984,0,8.9999,0
2004/2/3 13:15,0,0,0,0,0,0,0,0
2004/2/3 13:30,0.003333333,0,1.79998,0,0,0,1.79998,0
2004/2/3 13:45,0.033333333,0,17.9998,0,16.19982,0,1.79998,0
2004/2/3 14:00,0.02,0,10.79988,0,0,0,10.79988,0
2004/2/3 14:15,0.023333333,0,12.59986,0,12.59986,0,0,0
2004/2/3 14:30,0.006666667,0,3.59996,0,0,0,3.59996,0
2004/2/3 14:45,0,0,0,0,0,0,0,0
2004/2/3 15:00,0,0,0,0,0,0,0,0
2004/2/3 15:15,0,0,0,0,0,0,0,0
2004/2/3 15:30,0,0,0,0,0,0,0,0
2004/2/3 15:45,0,0,0,0,0,0,0,0
2004/2/3 16:00,0,0,0,0,0,0,0,0
2004/2/3 16:15,0,0,0,0,0,0,0,0
2004/2/3 16:30,0,0,0,0,0,0,0,0
2004/2/3 16:45,0,0,0,0,0,0,0,0
2004/2/3 17:00,0,0,0,0,0,0,0,0
2004/2/3 17:15,0,0,0,0,0,0,0,0
2004/2/3 17:30,0,0,0,0,0,0,0,0
2004/2/3 17:45,0,0,0,0,0,0,0,0
2004/2/3 18:00,0.013333333,0,7.19992,0,0,0,7.19992,0
2004/2/3 18:15,0.243333333,0,131.39854,0,131.39854,0,0,0
2004/2/3 18:30,0.026666667,0,14.39984,0,0,0,14.39984,0
2004/2/3 18:45,0.023333333,0,12.59986,0,0,0,12.59986,0
2004/2/3 19:00,0.01,0,5.39994,0,0,0,5.39994,0
2004/2/3 19:15,0.003333333,0,1.79998,0,0,0,1.79998,0
2004/2/3 19:30,0.006666667,0,3.59996,0,0,0,3.59996,0
2004/2/3 19:45,0.036666667,0,19.79978,0,17.9998,0,1.79998,0
2004/2/3 20:00,0.046666667,0,25.19972,0,10.79988,0,14.39984,0
2004/2/3 20:15,0.006666667,0,3.59996,0,0,0,3.59996,0
2004/2/3 20:30,0.003333333,0,1.79998,0,0,0,1.79998,0
2004/2/3 20:45,0.006666667,0,3.59996,0,0,0,3.59996,0
2004/2/3 21:00,0.006666667,0,3.59996,0,0,0,3.59996,0
2004/2/3 21:15,0.006666667,0,3.59996,0,0,0,3.59996,0
2004/2/3 21:30,0.006666667,0,3.59996,0,0,0,3.59996,0
2004/2/3 21:45,0.006666667,0,3.59996,0,0,0,3.59996,0
2004/2/3 22:00,0.01,0,5.39994,0,0,0,5.39994,0
2004/2/3 22:15,0.003333333,0,1.79998,0,0,0,1.79998,0
2004/2/3 22:30,0.003333333,0,1.79998,0,0,0,1.79998,0
2004/2/3 22:45,0,0,0,0,0,0,0,0
2004/2/3 23:00,0,0,0,0,0,0,0,0
2004/2/3 23:15,0,0,0,0,0,0,0,0
2004/2/3 23:30,0,0,0,0,0,0,0,0
2004/2/3 23:45,0,0,0,0,0,0,0,0
2004/2/4 0:00,0,0,0,0,0,0,0,0
2004/2/4 0:15,0,0,0,0,0,0,0,0
2004/2/4 0:30,0,0,0,0,0,0,0,0
2004/2/4 0:45,0,0,0,0,0,0,0,0
2004/2/4 1:00,0,0,0,0,0,0,0,0
2004/2/4 1:15,0,0,0,0,0,0,0,0
2004/2/4 1:30,0,0,0,0,0,0,0,0
2004/2/4 1:45,0,0,0,0,0,0,0,0
2004/2/4 2:00,0,0,0,0,0,0,0,0
2004/2/4 2:15,0,0,0,0,0,0,0,0
2004/2/4 2:30,0,0,0,0,0,0,0,0
2004/2/4 2:45,0,0,0,0,0,0,0,0
2004/2/4 3:00,0,0,0,0,0,0,0,0
2004/2/4 3:15,0,0,0,0,0,0,0,0
2004/2/4 3:30,0,0,0,0,0,0,0,0
2004/2/4 3:45,0,0,0,0,0,0,0,0
2004/2/4 4:00,0,0,0,0,0,0,0,0
2004/2/4 4:15,0,0,0,0,0,0,0,0
2004/2/4 4:30,0,0,0,0,0,0,0,0
2004/2/4 4:45,0,0,0,0,0,0,0,0
2004/2/4 5:00,0,0,0,0,0,0,0,0
2004/2/4 5:15,0,0,0,0,0,0,0,0
2004/2/4 5:30,0,0,0,0,0,0,0,0
2004/2/4 5:45,0.023333333,0,12.59986,0,0,0,12.59986,0
2004/2/4 6:00,0.023333333,0,12.59986,0,0,0,12.59986,0
2004/2/4 6:15,0.066666667,0,35.9996,0,32.39964,0,3.59996,0
2004/2/4 6:30,0.03,0,16.19982,0,0,0,16.19982,0
2004/2/4 6:45,0.01,0,5.39994,0,0,0,5.39994,0
2004/2/4 7:00,0,0,0,0,0,0,0,0
2004/2/4 7:15,0.023333333,0,12.59986,0,0,0,12.59986,0
2004/2/4 7:30,0.026666667,0,14.39984,0,0,0,14.39984,0
2004/2/4 7:45,0.01,0,5.39994,0,0,0,5.39994,0
2004/2/4 8:00,0.006666667,0,3.59996,0,0,0,3.59996,0
2004/2/4 8:15,0.006666667,0,3.59996,0,0,0,3.59996,0
2004/2/4 8:30,0.003333333,0,1.79998,0,0,0,1.79998,0
2004/2/4 8:45,0.006666667,0,3.59996,0,0,0,3.59996,0
2004/2/4 9:00,0.003333333,0,1.79998,0,0,0,1.79998,0
2004/2/4 9:15,0,0,0,0,0,0,0,0
2004/2/4 9:30,0,0,0,0,0,0,0,0
2004/2/4 9:45,0,0,0,0,0,0,0,0
2004/2/4 10:00,0,0,0,0,0,0,0,0
2004/2/4 10:15,0,0,0,0,0,0,0,0
2004/2/4 10:30,0,0,0,0,0,0,0,0
2004/2/4 10:45,0,0,0,0,0,0,0,0
2004/2/4 11:00,0,0,0,0,0,0,0,0
2004/2/4 11:15,0,0,0,0,0,0,0,0
2004/2/4 11:30,0,0,0,0,0,0,0,0
2004/2/4 11:45,0,0,0,0,0,0,0,0
2004/2/4 12:00,0.006666667,0,3.59996,0,0,0,3.59996,0
2004/2/4 12:15,0,0,0,0,0,0,0,0
2004/2/4 12:30,0.003333333,0,1.79998,0,0,0,1.79998,0
2004/2/4 12:45,0.026666667,0,14.39984,0,0,0,14.39984,0
2004/2/4 13:00,0.023333333,0,12.59986,0,0,0,12.59986,0
2004/2/4 13:15,0.023333333,0,12.59986,0,0,0,12.59986,0
2004/2/4 13:30,0.033333333,0,17.9998,0,10.79988,0,7.19992,0
2004/2/4 13:45,0.02,0,10.79988,0,0,0,10.79988,0
2004/2/4 14:00,0.026666667,0,14.39984,0,0,0,14.39984,0
2004/2/4 14:15,0.016666667,0,8.9999,0,0,0,8.9999,0
2004/2/4 14:30,0.02,0,10.79988,0,0,0,10.79988,0
2004/2/4 14:45,0.023333333,0,12.59986,0,0,0,12.59986,0
2004/2/4 15:00,0.033333333,0,17.9998,0,10.79988,0,7.19992,0
2004/2/4 15:15,0.023333333,0,12.59986,0,0,0,12.59986,0
2004/2/4 15:30,0.01,0,5.39994,0,0,0,5.39994,0
2004/2/4 15:45,0.013333333,0,7.19992,0,0,0,7.19992,0
2004/2/4 16:00,0.023333333,0,12.59986,0,0,0,12.59986,0
2004/2/4 16:15,0.023333333,0,12.59986,0,0,0,12.59986,0
2004/2/4 16:30,0.02,0,10.79988,0,0,0,10.79988,0
2004/2/4 16:45,0.02,0,10.79988,0,0,0,10.79988,0
2004/2/4 17:00,0.016666667,0,8.9999,0,0,0,8.9999,0
2004/2/4 17:15,0.016666667,0,8.9999,0,0,0,8.9999,0
2004/2/4 17:30,0.023333333,0,12.59986,0,0,0,12.59986,0
2004/2/4 17:45,0.023333333,0,12.59986,0,0,0,12.59986,0
2004/2/4 18:00,0.01,0,5.39994,0,0,0,5.39994,0
2004/2/4 18:15,0,0,0,0,0,0,0,0
2004/2/4 18:30,0.073333333,0,39.59956,0,35.9996,0,3.59996,0
2004/2/4 18:45,0.24,0,129.59856,0,129.59856,0,0,0
2004/2/4 19:00,0.146666667,0,79.19912,0,79.19912,0,0,0
2004/2/4 19:15,0.083333333,0,44.9995,0,39.59956,0,5.39994,0
2004/2/4 19:30,0.02,0,10.79988,0,0,0,10.79988,0
2004/2/4 19:45,0.066666667,0,35.9996,0,28.79968,0,7.19992,0
2004/2/4 20:00,0.11,0,59.39934,0,59.39934,0,0,0
2004/2/4 20:15,0.026666667,0,14.39984,0,0,0,14.39984,0
2004/2/4 20:30,0.03,0,16.19982,0,0,0,16.19982,0
2004/2/4 20:45,0.023333333,0,12.59986,0,0,0,12.59986,0
2004/2/4 21:00,0.023333333,0,12.59986,0,0,0,12.59986,0
2004/2/4 21:15,0.023333333,0,12.59986,0,0,0,12.59986,0
2004/2/4 21:30,0.02,0,10.79988,0,0,0,10.79988,0
2004/2/4 21:45,0.09,0,48.59946,0,44.9995,0,3.59996,0
2004/2/4 22:00,0.003333333,0,1.79998,0,0,0,1.79998,0
2004/2/4 22:15,0.003333333,0,1.79998,0,0,0,1.79998,0
2004/2/4 22:30,0,0,0,0,0,0,0,0
2004/2/4 22:45,0,0,0,0,0,0,0,0
2004/2/4 23:00,0,0,0,0,0,0,0,0
2004/2/4 23:15,0,0,0,0,0,0,0,0
2004/2/4 23:30,0,0,0,0,0,0,0,0
2004/2/4 23:45,0,0,0,0,0,0,0,0
2004/2/5 0:00,0,0,0,0,0,0,0,0
2004/2/5 0:15,0,0,0,0,0,0,0,0
2004/2/5 0:30,0,0,0,0,0,0,0,0
2004/2/5 0:45,0,0,0,0,0,0,0,0
2004/2/5 1:00,0,0,0,0,0,0,0,0
2004/2/5 1:15,0,0,0,0,0,0,0,0
2004/2/5 1:30,0,0,0,0,0,0,0,0
2004/2/5 1:45,0,0,0,0,0,0,0,0
2004/2/5 2:00,0,0,0,0,0,0,0,0
2004/2/5 2:15,0,0,0,0,0,0,0,0
2004/2/5 2:30,0,0,0,0,0,0,0,0
2004/2/5 2:45,0,0,0,0,0,0,0,0
2004/2/5 3:00,0,0,0,0,0,0,0,0
2004/2/5 3:15,0,0,0,0,0,0,0,0
2004/2/5 3:30,0,0,0,0,0,0,0,0
2004/2/5 3:45,0,0,0,0,0,0,0,0
2004/2/5 4:00,0,0,0,0,0,0,0,0
2004/2/5 4:15,0,0,0,0,0,0,0,0
2004/2/5 4:30,0,0,0,0,0,0,0,0
2004/2/5 4:45,0,0,0,0,0,0,0,0
2004/2/5 5:00,0,0,0,0,0,0,0,0
2004/2/5 5:15,0,0,0,0,0,0,0,0
2004/2/5 5:30,0,0,0,0,0,0,0,0
2004/2/5 5:45,0.02,0,10.79988,0,0,0,10.79988,0
2004/2/5 6:00,0.063333333,0,34.19962,0,19.79978,0,14.39984,0
2004/2/5 6:15,0.05,0,26.9997,0,19.79978,0,7.19992,0
2004/2/5 6:30,0.036666667,0,19.79978,0,0,0,19.79978,0
2004/2/5 6:45,0.016666667,0,8.9999,0,0,0,8.9999,0
2004/2/5 7:00,0,0,0,0,0,0,0,0
2004/2/5 7:15,0.026666667,0,14.39984,0,0,0,14.39984,0
2004/2/5 7:30,0.023333333,0,12.59986,0,0,0,12.59986,0
2004/2/5 7:45,0.023333333,0,12.59986,0,0,0,12.59986,0
2004/2/5 8:00,0.02,0,10.79988,0,0,0,10.79988,0
2004/2/5 8:15,0.006666667,0,3.59996,0,0,0,3.59996,0
2004/2/5 8:30,0.006666667,0,3.59996,0,0,0,3.59996,0
2004/2/5 8:45,0.006666667,0,3.59996,0,0,0,3.59996,0
2004/2/5 9:00,0,0,0,0,0,0,0,0
2004/2/5 9:15,0,0,0,0,0,0,0,0
2004/2/5 9:30,0,0,0,0,0,0,0,0
2004/2/5 9:45,0,0,0,0,0,0,0,0
2004/2/5 10:00,0,0,0,0,0,0,0,0
2004/2/5 10:15,0,0,0,0,0,0,0,0
2004/2/5 10:30,0,0,0,0,0,0,0,0
2004/2/5 10:45,0,0,0,0,0,0,0,0
2004/2/5 11:00,0,0,0,0,0,0,0,0
2004/2/5 11:15,0,0,0,0,0,0,0,0
2004/2/5 11:30,0,0,0,0,0,0,0,0
2004/2/5 11:45,0,0,0,0,0,0,0,0
2004/2/5 12:00,0,0,0,0,0,0,0,0
2004/2/5 12:15,0.006666667,0,3.59996,0,0,0,3.59996,0
2004/2/5 12:30,0.026666667,0,14.39984,0,0,0,14.39984,0
2004/2/5 12:45,0.026666667,0,14.39984,0,0,0,14.39984,0
2004/2/5 13:00,0.016666667,0,8.9999,0,0,0,8.9999,0
2004/2/5 13:15,0.01,0,5.39994,0,0,0,5.39994,0
2004/2/5 13:30,0.003333333,0,1.79998,0,0,0,1.79998,0
2004/2/5 13:45,0.01,0,5.39994,0,0,0,5.39994,0
2004/2/5 14:00,0.01,0,5.39994,0,0,0,5.39994,0
2004/2/5 14:15,0.006666667,0,3.59996,0,0,0,3.59996,0
2004/2/5 14:30,0.006666667,0,3.59996,0,0,0,3.59996,0
2004/2/5 14:45,0.006666667,0,3.59996,0,0,0,3.59996,0
2004/2/5 15:00,0.003333333,0,1.79998,0,0,0,1.79998,0
2004/2/5 15:15,0.006666667,0,3.59996,0,0,0,3.59996,0
2004/2/5 15:30,0.006666667,0,3.59996,0,0,0,3.59996,0
2004/2/5 15:45,0.006666667,0,3.59996,0,0,0,3.59996,0
2004/2/5 16:00,0.003333333,0,1.79998,0,0,0,1.79998,0
2004/2/5 16:15,0.006666667,0,3.59996,0,0,0,3.59996,0
2004/2/5 16:30,0.006666667,0,3.59996,0,0,0,3.59996,0
2004/2/5 16:45,0.01,0,5.39994,0,0,0,5.39994,0
2004/2/5 17:00,0.023333333,0,12.59986,0,0,0,12.59986,0
2004/2/5 17:15,0.02,0,10.79988,0,0,0,10.79988,0
2004/2/5 17:30,0.063333333,0,34.19962,0,25.19972,0,8.9999,0
2004/2/5 17:45,0.056666667,0,30.59966,0,25.19972,0,5.39994,0
2004/2/5 18:00,0.08,0,43.19952,0,43.19952,0,0,0
2004/2/5 18:15,0.106666667,0,57.59936,0,50.39944,0,7.19992,0
2004/2/5 18:30,0.21,0,113.39874,0,113.39874,0,0,0
2004/2/5 18:45,0.06,0,32.39964,0,17.9998,0,14.39984,0
2004/2/5 19:00,0.056666667,0,30.59966,0,17.9998,0,12.59986,0
2004/2/5 19:15,0.136666667,0,73.79918,0,68.39924,0,5.39994,0
2004/2/5 19:30,0.046666667,0,25.19972,0,10.79988,0,14.39984,0
2004/2/5 19:45,0.023333333,0,12.59986,0,0,0,12.59986,0
2004/2/5 20:00,0.006666667,0,3.59996,0,0,0,3.59996,0
2004/2/5 20:15,0.013333333,0,7.19992,0,0,0,7.19992,0
2004/2/5 20:30,0.006666667,0,3.59996,0,0,0,3.59996,0
2004/2/5 20:45,0.006666667,0,3.59996,0,0,0,3.59996,0
2004/2/5 21:00,0.003333333,0,1.79998,0,0,0,1.79998,0
2004/2/5 21:15,0.006666667,0,3.59996,0,0,0,3.59996,0
2004/2/5 21:30,0.006666667,0,3.59996,0,0,0,3.59996,0
2004/2/5 21:45,0.006666667,0,3.59996,0,0,0,3.59996,0
2004/2/5 22:00,0.196666667,0,106.19882,0,106.19882,0,0,0
2004/2/5 22:15,0.023333333,0,12.59986,0,10.79988,0,1.79998,0
2004/2/5 22:30,0.006666667,0,3.59996,0,0,0,3.59996,0
2004/2/5 22:45,0.006666667,0,3.59996,0,0,0,3.59996,0
2004/2/5 23:00,0.043333333,0,23.39974,0,21.59976,0,1.79998,0
2004/2/5 23:15,0.08,0,43.19952,0,43.19952,0,0,0
2004/2/5 23:30,0.006666667,0,3.59996,0,0,0,3.59996,0
2004/2/5 23:45,0.006666667,0,3.59996,0,0,0,3.59996,0
2004/2/6 0:00,0.006666667,0,3.59996,0,0,0,3.59996,0
2004/2/6 0:15,0.003333333,0,1.79998,0,0,0,1.79998,0
2004/2/6 0:30,0.006666667,0,3.59996,0,0,0,3.59996,0
2004/2/6 0:45,0.006666667,0,3.59996,0,0,0,3.59996,0
2004/2/6 1:00,0.003333333,0,1.79998,0,0,0,1.79998,0
2004/2/6 1:15,0,0,0,0,0,0,0,0
2004/2/6 1:30,0,0,0,0,0,0,0,0
2004/2/6 1:45,0,0,0,0,0,0,0,0
2004/2/6 2:00,0,0,0,0,0,0,0,0
2004/2/6 2:15,0,0,0,0,0,0,0,0
2004/2/6 2:30,0,0,0,0,0,0,0,0
2004/2/6 2:45,0,0,0,0,0,0,0,0
2004/2/6 3:00,0,0,0,0,0,0,0,0
2004/2/6 3:15,0,0,0,0,0,0,0,0
2004/2/6 3:30,0,0,0,0,0,0,0,0
2004/2/6 3:45,0,0,0,0,0,0,0,0
2004/2/6 4:00,0,0,0,0,0,0,0,0
2004/2/6 4:15,0,0,0,0,0,0,0,0
2004/2/6 4:30,0,0,0,0,0,0,0,0
2004/2/6 4:45,0,0,0,0,0,0,0,0
2004/2/6 5:00,0,0,0,0,0,0,0,0
2004/2/6 5:15,0,0,0,0,0,0,0,0
2004/2/6 5:30,0,0,0,0,0,0,0,0
2004/2/6 5:45,0.023333333,0,12.59986,0,0,0,12.59986,0
2004/2/6 6:00,0.06,0,32.39964,0,25.19972,0,7.19992,0
2004/2/6 6:15,0.033333333,0,17.9998,0,0,0,17.9998,0
2004/2/6 6:30,0.023333333,0,12.59986,0,0,0,12.59986,0
2004/2/6 6:45,0.016666667,0,8.9999,0,0,0,8.9999,0
2004/2/6 7:00,0,0,0,0,0,0,0,0
2004/2/6 7:15,0.026666667,0,14.39984,0,0,0,14.39984,0
2004/2/6 7:30,0.02,0,10.79988,0,0,0,10.79988,0
2004/2/6 7:45,0.023333333,0,12.59986,0,0,0,12.59986,0
2004/2/6 8:00,0.013333333,0,7.19992,0,0,0,7.19992,0
2004/2/6 8:15,0.02,0,10.79988,0,0,0,10.79988,0
2004/2/6 8:30,0.02,0,10.79988,0,0,0,10.79988,0
2004/2/6 8:45,0.01,0,5.39994,0,0,0,5.39994,0
2004/2/6 9:00,0.003333333,0,1.79998,0,0,0,1.79998,0
2004/2/6 9:15,0.006666667,0,3.59996,0,0,0,3.59996,0
2004/2/6 9:30,0.006666667,0,3.59996,0,0,0,3.59996,0
2004/2/6 9:45,0.006666667,0,3.59996,0,0,0,3.59996,0
2004/2/6 10:00,0.016666667,0,8.9999,0,0,0,8.9999,0
2004/2/6 10:15,0.006666667,0,3.59996,0,0,0,3.59996,0
2004/2/6 10:30,0,0,0,0,0,0,0,0
2004/2/6 10:45,0,0,0,0,0,0,0,0
2004/2/6 11:00,0,0,0,0,0,0,0,0
2004/2/6 11:15,0,0,0,0,0,0,0,0
2004/2/6 11:30,0,0,0,0,0,0,0,0
2004/2/6 11:45,0.016666667,0,8.9999,0,0,0,8.9999,0
2004/2/6 12:00,0.026666667,0,14.39984,0,0,0,14.39984,0
2004/2/6 12:15,0.023333333,0,12.59986,0,0,0,12.59986,0
2004/2/6 12:30,0.006666667,0,3.59996,0,0,0,3.59996,0
2004/2/6 12:45,0,0,0,0,0,0,0,0
2004/2/6 13:00,0.006666667,0,3.59996,0,0,0,3.59996,0
2004/2/6 13:15,0,0,0,0,0,0,0,0
2004/2/6 13:30,0,0,0,0,0,0,0,0
2004/2/6 13:45,0,0,0,0,0,0,0,0
2004/2/6 14:00,0,0,0,0,0,0,0,0
2004/2/6 14:15,0,0,0,0,0,0,0,0
2004/2/6 14:30,0.05,0,26.9997,0,21.59976,0,5.39994,0
2004/2/6 14:45,0.05,0,26.9997,0,25.19972,0,1.79998,0
2004/2/6 15:00,0,0,0,0,0,0,0,0
2004/2/6 15:15,0.02,0,10.79988,0,0,0,10.79988,0
2004/2/6 15:30,0.016666667,0,8.9999,0,0,0,8.9999,0
2004/2/6 15:45,0,0,0,0,0,0,0,0
2004/2/6 16:00,0,0,0,0,0,0,0,0
2004/2/6 16:15,0,0,0,0,0,0,0,0
2004/2/6 16:30,0,0,0,0,0,0,0,0
2004/2/6 16:45,0,0,0,0,0,0,0,0
2004/2/6 17:00,0,0,0,0,0,0,0,0
2004/2/6 17:15,0,0,0,0,0,0,0,0